Regional Weather Roundup
Issued by NWS San Angelo, TX

Home | Current Version | Previous Version | Text Only | Print | Product List | Glossary On
Versions: 1 2 3 4 5 6 7 8 9 10 11 12 13 14 15 16 17 18 19 20 21 22 23 24 25 26 27 28 29 30 31 32 33 34 35 36 37 38 39 40 41 42 43 44 45 46 47 48 49 50
000
ASUS44 KSJT 202110
RWRSJT
WEST CENTRAL TEXAS REGIONAL WEATHER ROUNDUP
NATIONAL WEATHER SERVICE SAN ANGELO TX
400 PM CDT SUN APR 20 2014

NOTE: "FAIR" INDICATES FEW OR NO CLOUDS BELOW 12,000 FEET WITH NO
SIGNIFICANT WEATHER AND/OR OBSTRUCTIONS TO VISIBILITY.

TXZ049-054-064>066-071>073-076>078-098-099-113-114-127-128-139-140-
154-155-168>170-202200
...LOCATIONS ACROSS WEST CENTRAL TEXAS...

CITY           SKY/WX    TMP DP  RH WIND       PRES   REMARKS
SAN ANGELO     CLOUDY    70  64  81 S14       30.03F
ABILENE        CLOUDY    65  63  93 S10       30.05F
DYESS AFB      CLOUDY    66  63  88 S8        30.04F
JUNCTION       CLOUDY    70  61  73 S12       30.05F
SWEETWATER     CLOUDY    66  65  96 SE7       30.07F
BROWNWOOD      CLOUDY    66  64  94 SW6       30.05F FOG
COLEMAN        DRIZZLE   65  64  93 SE5       30.06F
SONORA         CLOUDY    70  64  83 SW8       30.06F
OZONA          FAIR      70  59  68 S12       30.07F
BRADY          NOT AVBL
$$

TEXAS PANHANDLE/OKLAHOMA PANHANDLE

CITY           SKY/WX    TMP DP  RH WIND       PRES   REMARKS
AMARILLO       CLOUDY    68  48  48 SW10      29.96F
BORGER         LGT RAIN  66  48  52 SW12      29.95F
CANADIAN       PTSUNNY   79  52  38 S18       29.91F
DALHART        CLOUDY    68  46  45 NW7       29.97F
DUMAS          CLOUDY    69  46  44 S9        29.95F
GUYMON         NOT AVBL
HEREFORD       MOCLDY    72  44  36 W18       29.97F
PAMPA          TSTM      63  51  65 W8        29.97F
PERRYTON       PTSUNNY   59  52  77 NW3       29.94F
$$

SOUTHERN PANHANDLE/SOUTH PLAINS/ROLLING PLAINS

CITY           SKY/WX    TMP DP  RH WIND       PRES   REMARKS
LUBBOCK        MOSUNNY   76  54  46 S20G26    29.97F
SNYDER         MOSUNNY   70  62  75 S13       30.03F
CHILDRESS      PTSUNNY   77  54  44 S18G24    29.96F
SEMINOLE       PTCLDY    77  47  35 SW15G24   30.02F
$$

PERMIAN BASIN

CITY           SKY/WX    TMP DP  RH WIND       PRES   REMARKS
MIDLAND        SUNNY     77  55  46 SW12G20   30.01F
ODESSA         SUNNY     76  54  46 SW8       30.02F
WINK           MOSUNNY   82  49  31 W13       29.99F
$$

FAR WEST/SOUTHWEST MOUNTAINS/TRANS PECOS

CITY           SKY/WX    TMP DP  RH WIND       PRES   REMARKS
ALPINE         PTCLDY    77  37  23 SW5       30.13F
DRYDEN           N/A     83  61  47 E10       29.99F
EL PASO        MOSUNNY   75  39  27 VRB5      30.08F
FORT STOCKTON  MOSUNNY   80  49  33 N6        30.02F
GUADALUPE PASS SUNNY     71  41  33 W30G41    30.13F
MARFA          MOSUNNY   75  34  22 SW3       30.12F
PECOS          PTCLDY    79  51  37 E5        29.99F
$$

DALLAS/FORT WORTH METROPLEX

CITY           SKY/WX    TMP DP  RH WIND       PRES   REMARKS
DFW AIRPORT    CLOUDY    75  51  43 S16       30.06F
FTW MEACHAM    CLOUDY    74  52  46 S13       30.05F
DAL-EXECUTIVE  CLOUDY    75  52  44 S9G16     30.06F
GRAND PRAIRIE  NOT AVBL
ADDISON        CLOUDY    75  50  41 S13G23    30.08S
MESQUITE       CLOUDY    73  52  46 S12       30.08F
LANCASTER      CLOUDY    74  52  46 SE7       30.07F
$$

NORTH CENTRAL TEXAS

CITY           SKY/WX    TMP DP  RH WIND       PRES   REMARKS
SHRMAN/DENISON CLOUDY    76  51  41 S14       30.05F
GAINESVILLE    CLOUDY    73  53  49 SE15      30.07F
BRIDGEPORT     CLOUDY    70  52  51 CALM      30.07S
DENTON         CLOUDY    73  52  47 S16       30.06S
WAXAHACHIE     CLOUDY    74  54  49 SE8       30.08F
GRANBURY       CLOUDY    75  59  58 S14       30.06F
$$

WESTERN NORTH TEXAS

CITY           SKY/WX    TMP DP  RH WIND       PRES   REMARKS
WICHITA FALLS  LGT RAIN  62  60  93 S14       30.08S FOG
VERNON         CLOUDY    69  60  72 SE15      30.01S
BRECKENRIDGE   CLOUDY    67  65  92 SW5       30.05S
COMANCHE       LGT RAIN  67  62  83 SE7       30.06F
$$

CENTRAL AND SOUTH CENTRAL TEXAS

CITY           SKY/WX    TMP DP  RH WIND       PRES   REMARKS
AUSTIN/BERGSTM CLOUDY    74  61  63 S13       30.06F
WACO           MOSUNNY   75  59  57 S9        30.06R
HILLSBORO      MOCLDY    75  55  50 S17       30.08R
TEMPLE         CLOUDY    77  55  47 S18       30.07F
KILLEEN-GRAY   CLOUDY    72  61  68 S14       30.06F
FORT HOOD      NOT AVBL
GEORGETOWN     CLOUDY    73  61  64 S10G16    30.07F
LAGO VISTA     RAIN      71  61  68 S9        30.09F
SAN MARCOS     CLOUDY    73  61  64 SE10      30.08F
NEW BRAUNFELS  CLOUDY    73  63  70 SE10      30.06F
RANDOLPH AFB   PTSUNNY   72  63  73 SE7       30.07F
SAN ANTONIO    CLOUDY    72  64  76 SE10      30.07F
STINSON        CLOUDY    75  63  66 SE10      30.04F
PLEASANTON     NOT AVBL
LA GRANGE      MOSUNNY   78  62  58 S9        30.06F
GIDDINGS       MOCLDY    79  58  48 S7        30.11F
$$

EAST TEXAS

CITY           SKY/WX    TMP DP  RH WIND       PRES   REMARKS
PARIS          PTSUNNY   75  57  53 SE7       30.08F
CLARKSVILLE    MOCLDY    80  54  40 E8        30.06F
TYLER          CLOUDY    77  55  46 S9        30.08F
LONGVIEW       CLOUDY    80  56  43 S8        30.07F
PALESTINE      MOCLDY    77  56  47 S7        30.11F
NACOGDOCHES    MOSUNNY   81  55  41 S12G18    30.09F
$$

TEXAS HILL COUNTRY AND EDWARDS PLATEAU

CITY           SKY/WX    TMP DP  RH WIND       PRES   REMARKS
LLANO          LGT RAIN  70  63  78 S8        30.10S
HORSESHOE BAY  CLOUDY    71  59  66 S12G17    30.07F
KERRVILLE      CLOUDY    64  62  93 SE10      30.07F
FREDERICKSBRG  CLOUDY    68  61  76 S9G20     30.07F
ROCKSPRINGS    CLOUDY    64  64 100 SE14      30.09F FOG
HONDO          LGT RAIN  72  65  78 S14       30.07F
UVALDE         CLOUDY    68  67  97 SE6       30.05F FOG
DEL RIO        CLOUDY    73  66  78 SE13      30.00F
$$

SOUTHEAST TEXAS

CITY           SKY/WX    TMP DP  RH WIND       PRES   REMARKS
COLLEGE STN    PTSUNNY   79  57  46 SE8G22    30.07F
CALDWELL       MOCLDY    79  54  41 S15       30.10F
CROCKETT       PTCLDY    82  63  51 S8        30.10F
BRENHAM        SUNNY     78  55  44 S10       30.09F
HUNTSVILLE     CLOUDY    80  54  40 S8        30.08F
CONROE         PTSUNNY   79  51  37 SE12      30.10F
HOUSTON BUSH   MOSUNNY   78  55  44 SE13      30.09F
HOUSTON HOBBY  MOSUNNY   79  52  38 SE9       30.10F
PERLAND        SUNNY     78  53  41 S9        30.11F
WHARTON        MOCLDY    78  54  43 SE13      30.10F
$$

THE UPPER TEXAS COAST

CITY           SKY/WX    TMP DP  RH WIND       PRES   REMARKS
ORANGE         CLEAR     79  51  37 S8        30.13S
PORT ARTHUR    SUNNY     80  54  40 S9        30.10F
GALVESTON      SUNNY     72  64  76 E12       30.12F
ANGLETON       SUNNY     78  55  44 SE16      30.11F
BAY CITY       CLEAR     79  59  51 SE13G21   30.10F
$$

TEXAS COASTAL BEND, RIO GRANDE PLAINS DEEP SOUTH TEXAS

CITY           SKY/WX    TMP DP  RH WIND       PRES   REMARKS
VICTORIA       CLOUDY    81  61  50 SE20G25   30.07F
BEEVILLE       CLOUDY    80  62  53 S16       30.05F
ROCKPORT       MOSUNNY   77  64  64 SE18      30.08F
PORT ARANSAS   MOCLDY    74  66  76 SE13G21   30.08F
PORT LAVACA    NOT AVBL
CORPUS CHRISTI PTSUNNY   80  62  54 SE18G25   30.06F
KINGSVILLE NAS PTSUNNY   79  65  62 SE21G28   30.04F
COTULLA        CLOUDY    76  64  66 SE13      30.03F
LAREDO         CLOUDY    81  66  60 SE16      30.03F
BROWNSVILLE    CLOUDY    77  66  68 SE17G24   30.05F
PORT ISABEL    CLOUDY    77  66  68 E20G26    30.05F
HEBBRONVILLE   CLOUDY    77  64  64 E14       30.03F
MCALLEN        CLOUDY    78  65  63 SE14      30.03F
WESLACO        CLOUDY    79  63  57 SE14G21   30.02F
FALFURRIAS     CLOUDY    80  64  59 SE13      30.02F
EDINBURG       CLOUDY    81  63  54 S12       30.03F
$$



USA.gov is the U.S. government's official web portal to all federal, state and local government web resources and services.